Showing default

AE3VA, 64563

Orbit data source: Space-Track

AE3VA, 64563 is a payload satellite owned by ArkEdge (JP) in SSO that was launched on Mon, 23 Jun 2025 UTC via an FALCON 9 launch vehicle from the Air Force Western Test Range (AFWTR). Payload-class satellites include a variety of spacecraft equipped with specific instruments for various scientific and technological missions. These include communications satellites like Starlink; space stations such as the ISS; scientific satellites like the Hubble; Earth observation satellites from companies like Planet Labs, Umbra, and HawkEye 360; GPS; miniature CubeSats for education and research; and military/defense satellites.

Loading next visibility...
Identifier
64563, 2025-135AM
Orbit
SSO
Country
Flag of JPJP / JPN
Related business
Manufacturer
ArkEdge
Mission
Operational Commercial Communications
Bus & Motor
CUBESAT 6U, Unknown motor
Mass
~10 kg wet, ~10 kg dry
Launch date (UTC)
2025-06-23 (11 months ago)
Launch vehicle
FALCON 9
Launch site
Air Force Western Test Range (AFWTR)
Object type
Payload
Rocket body
Debris
Shape & HBR
Box + 2 Pan, 0.1 m
Radar Cross Section
0.080 m², Medium (>0.1 m² and < 1m²)

Expand to show TLE details & history
Last TLE update: 11 hours ago

TLE from 11 hours ago
0 AE3VA
1 64563U 25135AM  26133.13151262  .00004494  00000-0  39828-3 0  9990
2 64563  97.7632 248.2661 0003339  60.9430 299.2126 14.96731480 48690
Epoch: 2026-05-13T03:09Z
TLE epoch observation values (Epoch: 2026-05-13T03:09:22.690Z)
Latitude
0.00002°
Longitude
-29.97438°
Altitude
578.919 km
Speed
7.572 km/s
True Right ascension
16h 33m 03s
True Declination
0° 00' 00"
Sunlit
Object was in full shadow at epoch
Visualization orbit readout
Latitude
Unknown
Longitude
Unknown
Altitude
Unknown
Speed
Unknown
Apparent Right ascension
Unknown
Apparent Declination
Unknown
Sunlit
N/A
Visualization observer readout
Local Sidereal Time
22:52:11
Azimuth
Unknown
Elevation
Unknown
Doppler factor
Unknown
Orbital elements
Apogee altitude
576.337 km
Perigee altitude
571.695 km
Semi-major axis
6,952.153 km
Eccentricity
0.00033
Inclination
97.7632°
RAAN
248.2661°
Arg. of periapsis
60.943°
True anomaly
299.1792°
Mean anomaly
299.2126°
Eccentric anomaly
299.1959°
Mean motion
3.74424 °/min
Orbital period
96.15 mins
BSTAR
0.00039828
Loading maneuver chart data...
Computing Atmospheric mass density...
Loading historical data...
Loading historical data...
Loading historical data...
Loading historical data...
Loading historical data...
Loading historical data...
Loading historical data...

Documentation

Showing up to 5 results
|